Violingletscher

KL  EN  DA
ASIAQ
Weather Now GREENLAND SURVEY
Updated [WGT/WGST] Temperature [°C] Wind [m/s] Air pressure [hPa] Relative humidity [%] Precipitation [mm]
Present Wind chill Speed Max
12.05 19:00-4,70,01,1 ⇗n/a96772n/a
12.05 18:00-3,0-5,01,4 ⇑n/a96666n/a
12.05 17:00-0,4-3,52,6 ⇓n/a96554n/a
12.05 16:00-0,5-4,43,3 ⇓n/a96559n/a
12.05 15:00-0,6-4,33,2 ⇓n/a96558n/a
12.05 14:00-0,7-4,12,8 ⇓n/a96558n/a
12.05 13:00-1,0-4,42,7 ⇓n/a96556n/a
12.05 12:00-1,5-5,22,9 ⇓n/a96556n/a
12.05 11:00-2,1-6,53,5 ⇓n/a96553n/a
12.05 10:00-3,0-7,43,3 ⇓n/a96656n/a
12.05 09:00-4,0-8,93,6 ⇓n/a96655n/a
12.05 08:00-5,3-10,73,9 ⇓n/a96657n/a
12.05 07:00-6,7-12,94,4 ⇓n/a96659n/a
12.05 06:00-8,2-14,74,4 ⇓n/a96662n/a
12.05 05:00-8,5-15,44,8 ⇓n/a96660n/a
12.05 04:00-9,0-15,94,7 ⇓n/a96762n/a
12.05 03:00-9,2-16,44,9 ⇓n/a96765n/a
12.05 02:00-8,8-15,74,6 ⇓n/a96762n/a
12.05 01:00-8,6-13,93,1 ⇓n/a96778n/a
12.05 00:00-8,7-13,22,4 ⇓n/a96798n/a
11.05 23:00-8,5-13,22,6 ⇓n/a967100n/a
11.05 22:00-8,5-11,81,7 ⇓n/a96799n/a
11.05 21:00-7,90,00,3 ⇒n/a96797n/a
11.05 20:00-7,40,00,3 ⇘n/a96793n/a
11.05 19:00-6,60,00,5 ⇘n/a96686n/a
Position: (72.223,-26.8182)

[Back]